{"data":{"norad_id":66855,"intl_designator":"2025-281H","name":"STARLINK-36090","alt_names":[],"object_type":"PAYLOAD","status":"ACTIVE","operator":null,"country":"US","launch_date":"2025-12-02","launch_site_code":"AFETR","launch_vehicle":null,"mission":null,"orbit_class":"UNKNOWN","rcs_meters":null,"size_class":null,"mass_kg":null,"dimensions":null,"purposes":["comms"],"wikipedia_slug":null,"has_3d_model":false,"image_url":null,"decayed_at":null,"tle_current":{"epoch":"2026-09-20T21:25:27.585696Z","epoch_age_seconds":50145,"freshness":"FRESH","line1":"1 66855U 25281H   26263.89268039  .00007952  00000+0  29804-3 0  9990","line2":"2 66855  43.0066 320.6948 0002775 275.8646  84.1889 15.27596326 46040","mean_motion":15.27596326,"eccentricity":0.0002775,"inclination_deg":43.0066,"raan_deg":320.6948,"arg_perigee_deg":275.8646,"mean_anomaly_deg":84.1889,"bstar":0.00029804,"rev_number":4604,"period_min":94.265741249236,"perigee_km":481.09624498186,"apogee_km":484.90417613372,"semimajor_km":6861.1372105578,"source":"CELESTRAK","updated_at":"2026-09-21T09:00:36.026981Z"}}}